COSMOS 2433 (720) 1 32275U 07052A 25344.27383881 -.00000050 00000+0 00000+0 0 9995 2 32275 65.6847 322.2886 0005554 252.6006 107.3381 2.13103813141032 COSMOS 2432 (719) 1 32276U 07052B 25344.58077953 -.00000050 00000+0 00000+0 0 9990 2 32276 65.7001 322.4023 0011254 311.5771 228.3090 2.13102999141067 COSMOS 2434 (721) 1 32393U 07065A 25344.64950273 .00000048 00000+0 00000+0 0 9992 2 32393 64.3147 198.2738 0004304 71.1480 107.6300 2.13101152139755 COSMOS 2436 (723) 1 32395U 07065C 25342.08416236 .00000051 00000+0 00000+0 0 9990 2 32395 64.3236 198.4308 0017747 9.2257 134.6131 2.13100022139656 COSMOS 2456 (730) 1 36111U 09070A 25343.24160716 -.00000017 00000+0 00000+0 0 9999 2 36111 64.8981 77.4578 0002838 298.5783 37.1692 2.13103359124373 COSMOS 2457 (733) 1 36112U 09070B 25347.04495429 -.00000049 00000+0 00000+0 0 9999 2 36112 64.8858 77.1749 0004719 157.6277 345.0739 2.13100824124464 COSMOS 2460 (732) 1 36402U 10007C 25343.80668569 -.00000049 00000+0 00000+0 0 9990 2 36402 65.5316 320.8726 0002788 272.0350 265.8280 2.13105924122693 COSMOS 2476 (744) 1 37867U 11064A 25344.81266762 -.00000024 00000+0 00000+0 0 9994 2 37867 65.1614 79.2364 0023892 233.6597 135.7131 2.13101258109752 COSMOS 2477 (745) 1 37868U 11064B 25346.91503128 -.00000044 00000+0 00000+0 0 9990 2 37868 65.1692 79.2429 0021133 234.6330 128.5252 2.13102761109791 COSMOS 2475 (743) 1 37869U 11064C 25343.25145487 -.00000013 00000+0 00000+0 0 9991 2 37869 65.1742 79.3871 0026081 248.2695 140.2782 2.13101306109728 COSMOS 2485 (747) 1 39155U 13019A 25345.67573243 -.00000031 00000+0 00000+0 0 9996 2 39155 65.3130 79.9029 0024583 229.3313 130.4708 2.13102869 98286 COSMOS 2492 (754) 1 39620U 14012A 25346.10360089 -.00000055 00000+0 00000+0 0 9994 2 39620 65.4080 320.2923 0014198 311.6032 48.2746 2.13102960 91257 COSMOS 2500 (755) 1 40001U 14032A 25346.74506427 -.00000058 00000+0 00000+0 0 9992 2 40001 65.3430 320.0321 0008229 219.0153 140.9247 2.13105799 89484 COSMOS 2501 (702K) 1 40315U 14075A 25346.06627807 .00000065 00000+0 00000+0 0 9995 2 40315 63.6138 196.8484 0020213 204.6963 155.2753 2.13101306 85862 COSMOS 2514 (751) 1 41330U 16008A 25345.11175417 -.00000052 00000+0 00000+0 0 9998 2 41330 65.1347 319.4596 0012161 220.0573 139.8518 2.13102604 76610 COSMOS 2522 (752) 1 42939U 17055A 25344.95013975 .00000051 00000+0 00000+0 0 9996 2 42939 64.0760 198.2900 0006493 225.3551 134.6611 2.13101810 63969 COSMOS 2527 (756) 1 43508U 18053A 25346.78796406 -.00000041 00000+0 00000+0 0 9998 2 43508 65.4727 80.1298 0008616 224.8519 135.0923 2.13102055 58301 COSMOS 2529 (757) 1 43687U 18086A 25345.94687149 .00000061 00000+0 00000+0 0 9993 2 43687 64.2920 198.9152 0007192 254.1119 105.8792 2.13101890 55298 COSMOS 2534 (758) 1 44299U 19030A 25344.60722874 .00000047 00000+0 00000+0 0 9994 2 44299 64.3653 198.9649 0008999 283.4628 263.2195 2.13102261 50901 COSMOS 2544 (759) 1 44850U 19088A 25345.79400019 -.00000032 00000+0 00000+0 0 9990 2 44850 65.4596 79.9900 0013691 249.2614 110.6076 2.13101808 46724 COSMOS 2545 (760) 1 45358U 20018A 25344.58200084 -.00000052 00000+0 00000+0 0 9997 2 45358 64.4710 319.0455 0011843 248.8319 111.0396 2.13102273 44648 COSMOS 2547 (705K) 1 46805U 20075A 25342.89301153 .00000045 00000+0 00000+0 0 9990 2 46805 64.5958 198.8249 0006384 229.7163 130.3027 2.13099854 39856 COSMOS 2557 (706K) 1 52984U 22075A 25341.18125486 -.00000052 00000+0 00000+0 0 9990 2 52984 64.4129 321.2470 0013704 276.9000 82.9390 2.13101754 26625 COSMOS 2559 (707K) 1 54031U 22130A 25347.10083282 -.00000062 00000+0 00000+0 0 9993 2 54031 64.3821 321.1284 0011797 192.3956 167.5755 2.13101359 24726 COSMOS 2564 (761) 1 54377U 22161A 25346.94503653 .00000075 00000+0 00000+0 0 9993 2 54377 64.7382 198.8921 0008601 204.7149 155.3163 2.13102087 23663 COSMOS 2569 (703K) 1 57517U 23114A 25345.08138527 -.00000027 00000+0 00000+0 0 9997 2 57517 65.1933 78.9695 0010485 287.0346 72.8683 2.13103934 18252 COSMOS 2584 (704K) 1 63130U 25042A 25345.90648753 -.00000035 00000+0 00000+0 0 9994 2 63130 64.9756 79.1743 0007648 217.1196 142.8438 2.13103011 6058 COSMOS 2596 (708K) 1 65590U 25206B 25347.15322382 -.00000061 00000+0 00000+0 0 9993 2 65590 64.7439 321.4594 0014026 306.3445 48.5588 2.13100493 1941